Location: Blue Mountain Vista Observatory
(40.6992°N, 75.9422°W)
Time: 23:40:56
(UTC-05:00)

Amateur Radio Satellites - All Passes

Search period start: 18 January 2017 23:10
Search period end: 19 January 2017 23:10
Location: Blue Mountain Vista Observatory, 40.6992°N, 75.9422°W

Satellite Date Start Highest point End Downlink Frequencies (MHz)
Time Altitude Azimuth
RS-15 18 Jan 23:13:10 23:24:24 54° 110° (ESE) 23:36:05 29.354- 29.394
AISAT 18 Jan 23:13:31 23:17:57 72° 75° (ENE) 23:22:24 437.250
UNISAT 6 18 Jan 23:16:05 23:19:39 24° 292° (WNW) 23:23:15 437.425
ISS 18 Jan 23:27:52 23:31:02 50° 328° (NNW) 23:34:13 145.825
ESTCUBE 1 18 Jan 23:28:10 23:32:11 31° 264° (W) 23:36:14 437.505/2401.250
PCSat 18 Jan 23:29:44 23:31:00 11° 101° (ESE) 23:32:16 145.827
JAS-2 18 Jan 23:30:19 23:37:25 78° 286° (WNW) 23:45:09 435.910
TIGRISAT 18 Jan 23:30:25 23:33:31 19° 294° (WNW) 23:36:39 435.000
QB50P1 18 Jan 23:30:31 23:34:36 48° 100° (E) 23:38:41 145.935-145.965
POLYITAN 1 18 Jan 23:34:01 23:38:10 53° 100° (E) 23:42:18 437.675
QB50P2 18 Jan 23:35:10 23:39:21 59° 101° (E) 23:43:31 145.880/145.840
ANTELSAT 18 Jan 23:46:05 23:48:07 13° 297° (WNW) 23:50:09 437.575/2403.000
VELOX 1 18 Jan 23:47:10 23:51:30 51° 260° (W) 23:55:51 145.980
AO-85 18 Jan 23:51:55 23:55:26 32° 245° (WSW) 23:58:56 145.980
POPSAT HIP 1 18 Jan 23:57:10 00:01:23 85° 284° (WNW) 00:05:37 437.405
DUCHIFAT 1 19 Jan 00:10:25 00:14:34 69° 286° (WNW) 00:18:45 145.980
AIST 1 19 Jan 00:13:02 00:15:53 17° 71° (ENE) 00:18:43
NANOSAT C BR1 19 Jan 00:15:00 00:19:07 55° 287° (WNW) 00:23:13 145.865
Oscar 19 19 Jan 00:17:42 00:20:15 14° 90° (E) 00:22:46 437.125/150
SWISSCUBE 19 Jan 00:21:30 00:21:49 10° 59° (ENE) 00:22:09 437.505
DX 1 19 Jan 00:25:44 00:29:50 39° 261° (W) 00:33:57 434.975-435.025
UKube-1 19 Jan 00:28:24 00:32:36 50° 260° (W) 00:36:50 .
TISAT 1 19 Jan 00:28:56 00:32:56 46° 73° (ENE) 00:36:57 437.305
SPROUT 19 Jan 00:30:58 00:34:21 23° 265° (W) 00:37:45 437.525
BEESAT 3 19 Jan 00:34:00 00:37:08 21° 47° (NE) 00:40:14 437.485
50 SAT 19 Jan 00:46:28 00:47:29 11° 269° (W) 00:48:29 437.505
BUGSAT 1 19 Jan 00:52:38 00:56:38 63° 285° (WNW) 01:00:37 437.445
AISAT 19 Jan 00:54:38 00:54:52 10° 270° (W) 00:55:07 437.250
YUBILEINY 19 Jan 01:00:10 01:08:47 53° 76° (ENE) 01:17:16 435.215
ISS 19 Jan 01:06:08 01:08:06 15° 347° (NNW) 01:10:06 145.825
QB50P1 19 Jan 01:07:34 01:09:58 15° 295° (WNW) 01:12:22 145.935-145.965
PCSat 19 Jan 01:08:06 01:13:31 88° 118° (ESE) 01:18:59 145.827
POLYITAN 1 19 Jan 01:11:22 01:13:30 14° 296° (WNW) 01:15:38 437.675
QB50P2 19 Jan 01:12:50 01:14:38 13° 297° (WNW) 01:16:27 145.880/145.840
BEESAT 2 19 Jan 01:14:36 01:17:57 24° 48° (NE) 01:21:17 435.950
ITUPSAT 1 19 Jan 01:17:25 01:21:37 32° 68° (ENE) 01:25:52 437.325
JAS-2 19 Jan 01:17:32 01:21:30 16° 302° (WNW) 01:25:39 435.910
RS-15 19 Jan 01:25:27 01:37:01 52° 315° (NW) 01:49:02 29.354- 29.394
Cosmos 2504 19 Jan 01:28:22 01:35:15 39° 73° (ENE) 01:41:51 435.465 / 435.565
Cosmos 2491 19 Jan 01:47:39 01:56:00 54° 90° (E) 02:04:24 435.465 / 435.565
AIST 1 19 Jan 01:49:41 01:53:38 37° 268° (W) 01:57:32
BEESAT 19 Jan 01:52:39 01:57:23 76° 75° (ENE) 02:02:09 436.000
SWISSCUBE 19 Jan 01:54:04 01:58:49 87° 76° (ENE) 02:03:37 437.505
CUSAT 1 19 Jan 01:54:17 01:55:46 11° 76° (ENE) 01:57:21 437.405
AUBIESAT-1 19 Jan 01:54:27 01:56:25 13° 60° (ENE) 01:58:21 437.475
Gurwin Techsat 1B 19 Jan 01:54:34 01:59:52 63° 101° (ESE) 02:05:07 435.225
Oscar 19 19 Jan 01:54:54 02:00:03 70° 286° (WNW) 02:05:10 437.125/150
MOZHAYETS 4 19 Jan 02:04:43 02:08:36 28° 69° (ENE) 02:12:31
TISAT 1 19 Jan 02:06:36 02:08:48 14° 268° (W) 02:11:01 437.305
BEESAT 3 19 Jan 02:11:09 02:14:52 37° 244° (WSW) 02:18:32 437.485
ITAMSAT 1 19 Jan 02:34:14 02:38:44 29° 96° (E) 02:43:13 435.822/435.867
ISS 19 Jan 02:44:02 02:45:38 13° 7° (N) 02:47:15 145.825
PHONESAT 2.4 19 Jan 02:44:29 02:46:33 28° 160° (SSE) 02:48:36 2401.200-2431.200
CUBESAT XI-V 19 Jan 02:47:42 02:49:52 13° 62° (ENE) 02:52:03 437.345
M-CUBED/EXP-1 PRIME 19 Jan 02:47:50 02:52:14 61° 69° (ENE) 02:56:20 437.505
BEESAT 2 19 Jan 02:52:09 02:55:46 32° 245° (WSW) 02:59:21 435.950
PCSat 19 Jan 02:54:15 02:57:39 17° 318° (NW) 03:01:05 145.827
ITUPSAT 1 19 Jan 02:55:29 02:59:27 26° 265° (W) 03:03:26 437.325
KKS-1 19 Jan 02:56:57 03:00:55 33° 69° (ENE) 03:04:54 437.445
YUBILEINY 19 Jan 02:57:35 03:05:09 34° 276° (W) 03:12:40 435.215
AO-7 19 Jan 03:05:31 03:13:18 41° 99° (E) 03:20:59 29.400- 29.500
Cosmos 2504 19 Jan 03:21:55 03:28:30 36° 273° (W) 03:34:52 435.465 / 435.565
AUBIESAT-1 19 Jan 03:26:07 03:30:25 62° 253° (WSW) 03:34:30 437.475
CUSAT 1 19 Jan 03:31:20 03:36:09 86° 279° (W) 03:42:36 437.405
BEESAT 19 Jan 03:34:33 03:35:41 11° 271° (W) 03:36:49 436.000
Gurwin Techsat 1B 19 Jan 03:35:50 03:39:16 18° 298° (WNW) 03:42:43 435.225
MOZHAYETS 4 19 Jan 03:41:48 03:45:41 27° 265° (W) 03:49:37
RS-15 19 Jan 03:44:09 03:53:29 24° 346° (NNW) 04:02:56 29.354- 29.394
Cosmos 2491 19 Jan 03:45:34 03:53:11 33° 290° (WNW) 04:00:51 435.465 / 435.565
STARS 19 Jan 03:54:29 03:58:48 63° 74° (ENE) 04:03:09 437.465
DANDE 19 Jan 04:06:10 04:09:38 49° 93° (E) 04:14:15 436.750
BRITE-PL 19 Jan 04:12:52 04:16:40 22° 92° (E) 04:20:15 437.365/2234.400
ITAMSAT 1 19 Jan 04:13:31 04:18:11 34° 292° (WNW) 04:22:51 435.822/435.867
PHONESAT 2.4 19 Jan 04:18:15 04:20:32 84° 168° (SSE) 04:22:50 2401.200-2431.200
ISS 19 Jan 04:19:57 04:22:54 31° 27° (NNE) 04:25:51 145.825
CUBESAT XI-V 19 Jan 04:21:58 04:26:38 70° 258° (WSW) 04:31:22 437.345
M-CUBED/EXP-1 PRIME 19 Jan 04:24:59 04:26:53 13° 262° (W) 04:28:45 437.505
KKS-1 19 Jan 04:34:01 04:37:31 22° 265° (W) 04:41:01 437.445
AIST 2 19 Jan 04:34:28 04:38:41 60° 55° (NE) 04:42:52 435.215
AO-7 19 Jan 04:58:15 05:06:05 46° 298° (WNW) 05:13:53 29.400- 29.500
CUTE-I 19 Jan 05:13:01 05:16:09 16° 91° (E) 05:19:15 437.470
DOVE 4 19 Jan 05:14:14 05:15:47 12° 90° (E) 05:17:19 437.250
CUSAT 1 19 Jan 05:17:11 05:19:33 13° 305° (NW) 05:22:08 437.405
STRAND 1 19 Jan 05:29:03 05:32:47 21° 64° (ENE) 05:36:32 437.568
HORYU 2 19 Jan 05:33:52 05:38:18 69° 102° (ESE) 05:42:45 437.375
STARS 19 Jan 05:34:07 05:35:33 11° 269° (W) 05:36:58 437.465
LilacSat-2 19 Jan 05:35:02 05:38:13 24° 95° (E) 05:41:24 437.200
Cosmos 2499 19 Jan 05:46:16 05:52:07 26° 69° (ENE) 05:57:50 435.465 / 435.565
NOAA 18 19 Jan 05:46:42 05:50:12 17° 92° (E) 05:53:42 137.9125
GONETS M04 19 Jan 05:47:29 05:54:41 27° 67° (ENE) 06:01:50
BRITE-PL 19 Jan 05:50:46 05:55:18 36° 291° (WNW) 05:59:30 437.365/2234.400
DANDE 19 Jan 05:51:20 05:53:10 13° 301° (WNW) 05:55:12 436.750
PHONESAT 2.4 19 Jan 05:52:21 05:54:37 57° 192° (SSW) 05:56:52 2401.200-2431.200
Cubesat XI-IV 19 Jan 05:54:16 05:59:13 38° 98° (E) 06:04:09 437.490
ISS 19 Jan 05:56:26 05:59:23 32° 224° (SW) 06:02:19 145.825
O/OREOS (USA 219) 19 Jan 05:56:42 06:00:37 30° 104° (ESE) 06:04:33 437.305
RS-15 19 Jan 06:01:52 06:11:53 27° 22° (NNE) 06:21:44 29.354- 29.394
GOMX 1 19 Jan 06:02:40 06:07:08 66° 285° (WNW) 06:11:19 467.674
NOAA 15 19 Jan 06:08:51 06:14:05 54° 100° (E) 06:19:16 137.62
AIST 2 19 Jan 06:14:42 06:16:38 13° 252° (WSW) 06:18:34 435.215
HO-68 19 Jan 06:20:46 06:24:51 16° 89° (E) 06:28:53 435.675
SO-50 19 Jan 06:45:22 06:46:33 11° 107° (ESE) 06:47:43 436.795
DOVE 4 19 Jan 06:49:46 06:53:52 52° 286° (WNW) 06:57:52 437.250
CUTE-I 19 Jan 06:51:20 06:56:37 65° 287° (WNW) 07:01:54 437.470
CINEMA 3 19 Jan 06:52:23 06:56:12 34° 97° (E) 07:00:05 145.822/145.860
AO-7 19 Jan 06:55:45 06:56:43 10° 319° (NW) 06:57:42 29.400- 29.500
CUTE 1.7 + AOD 2 19 Jan 07:02:50 07:06:24 25° 95° (E) 07:09:57 437.475
STRAND 1 19 Jan 07:06:42 07:11:36 48° 260° (W) 07:16:32 437.568
LilacSat-2 19 Jan 07:09:19 07:12:24 23° 291° (WNW) 07:15:30 437.200
HORYU 2 19 Jan 07:12:30 07:14:16 12° 298° (WNW) 07:16:03 437.375
NOAA 18 19 Jan 07:25:53 07:31:16 61° 288° (WNW) 07:36:37 137.9125
PHONESAT 2.4 19 Jan 07:27:09 07:28:26 14° 207° (SSW) 07:29:42 2401.200-2431.200
CANX-2 19 Jan 07:31:13 07:35:30 63° 101° (E) 07:39:45 2200.000
Cubesat XI-IV 19 Jan 07:34:39 07:39:07 28° 294° (WNW) 07:43:35 437.490
O/OREOS (USA 219) 19 Jan 07:36:17 07:40:00 25° 301° (WNW) 07:43:45 437.305
Cosmos 2499 19 Jan 07:38:43 07:45:37 53° 269° (W) 07:52:23 435.465 / 435.565
GONETS M04 19 Jan 07:43:27 07:52:12 68° 268° (W) 08:00:56
SEEDS 19 Jan 07:45:33 07:49:43 51° 99° (E) 07:53:51 437.485
NOAA 15 19 Jan 07:49:39 07:53:26 20° 297° (WNW) 07:57:11 137.62
COMPASS 1 19 Jan 07:53:58 07:57:58 40° 98° (E) 08:01:56 437.405
Oscar 11 19 Jan 07:55:49 07:57:42 12° 90° (E) 07:59:33 145.826/435.025
CUBEBUG 2 19 Jan 07:57:05 08:01:11 42° 99° (E) 08:05:24 437.445
HO-68 19 Jan 08:06:11 08:13:24 88° 290° (WNW) 08:20:34 435.675
AAUSAT CUBESAT 2 19 Jan 08:06:48 08:10:49 43° 98° (E) 08:14:47 437.432
PCSat 19 Jan 08:14:58 08:17:14 12° 38° (NE) 08:19:29 145.827
RS-15 19 Jan 08:15:09 08:27:30 65° 52° (NE) 08:39:20 29.354- 29.394
SO-50 19 Jan 08:21:37 08:26:21 83° 302° (WNW) 08:31:03 436.795
UWE-3 19 Jan 08:28:31 08:32:50 60° 101° (E) 08:37:15 435.000/436.395/437.385
FUNcube-1 19 Jan 08:28:40 08:32:37 32° 97° (E) 08:36:37 145.935
CINEMA 3 19 Jan 08:30:07 08:33:08 20° 293° (WNW) 08:36:11 145.822/145.860
UNISAT 6 19 Jan 08:38:04 08:41:34 25° 69° (ENE) 08:45:06 437.425
CUTE 1.7 + AOD 2 19 Jan 08:38:32 08:42:11 27° 291° (WNW) 08:45:48 437.475
PRISM 19 Jan 08:40:07 08:44:17 83° 260° (W) 08:48:29 437.425
ZACube-1 19 Jan 08:50:36 08:54:57 63° 101° (E) 08:59:22 437.345
TIGRISAT 19 Jan 08:51:32 08:55:20 33° 71° (ENE) 08:59:08 435.000
ANTELSAT 19 Jan 09:06:01 09:10:08 51° 73° (ENE) 09:14:16 437.575/2403.000
CANX-2 19 Jan 09:09:02 09:10:48 12° 297° (WNW) 09:12:34 2200.000
HUMSAT D 19 Jan 09:15:21 09:18:18 18° 93° (E) 09:21:14 437.325/437.525
SEEDS 19 Jan 09:22:39 09:24:59 14° 295° (WNW) 09:27:17 437.485
Oscar 11 19 Jan 09:29:53 09:34:10 57° 286° (WNW) 09:38:25 145.826/435.025
COMPASS 1 19 Jan 09:30:26 09:33:11 17° 294° (WNW) 09:35:55 437.405
CUBEBUG 2 19 Jan 09:34:38 09:37:30 18° 294° (WNW) 09:40:26 437.445
DELFI C3 19 Jan 09:36:30 09:40:27 56° 100° (E) 09:44:20 145.870
AAUSAT CUBESAT 2 19 Jan 09:43:20 09:45:54 16° 295° (WNW) 09:48:28 437.432
JAS-2 19 Jan 09:43:25 09:48:22 42° 68° (ENE) 09:53:46 435.910
GONETS M04 19 Jan 09:44:44 09:47:12 11° 287° (WNW) 09:49:40
HO-68 19 Jan 09:55:40 10:00:09 18° 306° (NW) 10:04:37 435.675
PCSat 19 Jan 09:56:18 10:01:43 65° 59° (ENE) 10:07:06 145.827
SO-50 19 Jan 10:05:07 10:07:31 14° 321° (NW) 10:09:55 436.795
FUNcube-1 19 Jan 10:05:15 10:08:40 23° 292° (WNW) 10:12:08 145.935
UWE-3 19 Jan 10:06:46 10:08:49 13° 296° (WNW) 10:10:55 435.000/436.395/437.385
UNISAT 6 19 Jan 10:14:37 10:18:12 26° 264° (W) 10:21:49 437.425
QB50P1 19 Jan 10:22:35 10:26:22 34° 71° (ENE) 10:30:09 145.935-145.965
POLYITAN 1 19 Jan 10:26:12 10:30:04 37° 71° (ENE) 10:33:56 437.675
QB50P2 19 Jan 10:27:18 10:31:14 41° 72° (ENE) 10:35:12 145.880/145.840
RS-15 19 Jan 10:28:29 10:39:19 39° 254° (WSW) 10:49:48 29.354- 29.394
ZACube-1 19 Jan 10:28:48 10:30:44 13° 296° (WNW) 10:32:40 437.345
TIGRISAT 19 Jan 10:28:56 10:32:05 20° 266° (W) 10:35:15 435.000
BY70-1 19 Jan 10:41:44 10:44:54 37° 98° (E) 10:47:52 436.1900
ANTELSAT 19 Jan 10:45:09 10:47:09 13° 269° (W) 10:49:09 437.575/2403.000
POPSAT HIP 1 19 Jan 10:48:56 10:53:05 67° 75° (ENE) 10:57:15 437.405
HUMSAT D 19 Jan 10:50:03 10:54:01 38° 288° (WNW) 10:58:00 437.325/437.525
CUBEBUG 1 19 Jan 10:52:24 10:54:56 15° 92° (E) 10:57:26 437.445
DUCHIFAT 1 19 Jan 11:01:26 11:05:36 81° 76° (ENE) 11:09:47 145.980
AISAT 19 Jan 11:05:32 11:07:44 14° 91° (E) 11:09:54 437.250
NANOSAT C BR1 19 Jan 11:06:15 11:10:26 81° 257° (WSW) 11:14:38 145.865
DELFI C3 19 Jan 11:13:18 11:14:44 12° 296° (WNW) 11:16:10 145.870
ESTCUBE 1 19 Jan 11:20:14 11:24:41 54° 100° (E) 11:29:06 437.505/2401.250
JAS-2 19 Jan 11:29:33 11:33:45 24° 268° (W) 11:38:13 435.910
Oscar 19 19 Jan 11:33:44 11:37:34 21° 64° (ENE) 11:41:24 437.125/150
VELOX 1 19 Jan 11:37:40 11:41:30 29° 96° (E) 11:45:19 145.980
Gurwin Techsat 1B 19 Jan 11:39:06 11:41:27 13° 59° (ENE) 11:43:48 435.225
PCSat 19 Jan 11:41:08 11:44:31 17° 256° (WSW) 11:47:55 145.827
BUGSAT 1 19 Jan 11:41:32 11:45:36 82° 78° (ENE) 11:49:40 437.445
Cosmos 2491 19 Jan 11:58:42 12:05:47 26° 67° (ENE) 12:12:50 435.465 / 435.565
QB50P1 19 Jan 11:59:10 12:02:12 19° 266° (W) 12:05:15 145.935-145.965
POLYITAN 1 19 Jan 12:03:10 12:05:59 17° 267° (W) 12:08:48 437.675
QB50P2 19 Jan 12:04:38 12:07:13 16° 268° (W) 12:09:48 145.880/145.840
50 SAT 19 Jan 12:09:23 12:12:52 50° 100° (E) 12:16:18 437.505
BY70-1 19 Jan 12:13:36 12:14:50 12° 295° (WNW) 12:16:03 436.1900
DX 1 19 Jan 12:14:00 12:17:58 34° 98° (E) 12:21:54 434.975-435.025
SPROUT 19 Jan 12:15:49 12:20:01 58° 100° (E) 12:24:13 437.525
UKube-1 19 Jan 12:15:58 12:19:35 26° 96° (E) 12:23:10 .
AO-7 19 Jan 12:17:51 12:21:00 13° 44° (NE) 12:24:09 29.400- 29.500
CUSAT 1 19 Jan 12:23:57 12:28:27 16° 59° (ENE) 12:32:50 437.405
CUBEBUG 1 19 Jan 12:27:18 12:31:27 46° 288° (WNW) 12:35:33 437.445
AISAT 19 Jan 12:40:13 12:44:30 53° 287° (WNW) 12:48:45 437.250
AIST 1 19 Jan 12:44:38 12:45:14 10° 83° (E) 12:45:50
ESTCUBE 1 19 Jan 12:58:24 13:01:01 15° 297° (WNW) 13:03:38 437.505/2401.250
DANDE 19 Jan 13:02:31 13:04:27 11° 58° (ENE) 13:06:24 436.750
Oscar 19 19 Jan 13:11:29 13:16:30 49° 260° (W) 13:21:34 437.125/150
VELOX 1 19 Jan 13:14:14 13:17:50 25° 292° (WNW) 13:21:24 145.980
Gurwin Techsat 1B 19 Jan 13:15:19 13:20:38 86° 257° (WSW) 13:25:59 435.225
50 SAT 19 Jan 13:45:11 13:45:36 10° 296° (WNW) 13:46:02 437.505
TISAT 1 19 Jan 13:48:09 13:52:20 89° 94° (E) 13:56:31 437.305
DX 1 19 Jan 13:50:39 13:53:56 21° 294° (WNW) 13:57:12 434.975-435.025
ITAMSAT 1 19 Jan 13:51:47 13:56:38 43° 70° (ENE) 14:01:31 435.822/435.867
UKube-1 19 Jan 13:51:54 13:55:32 27° 292° (WNW) 13:59:09 .
SPROUT 19 Jan 13:53:32 13:55:26 13° 297° (WNW) 13:57:20 437.525
BEESAT 19 Jan 13:53:52 13:57:20 19° 93° (E) 14:00:45 436.000
Cosmos 2491 19 Jan 13:54:39 14:03:20 68° 267° (W) 14:12:03 435.465 / 435.565
SWISSCUBE 19 Jan 13:55:08 13:58:55 23° 95° (E) 14:02:39 437.505
YUBILEINY 19 Jan 14:00:12 14:08:48 61° 91° (E) 14:17:27 435.215
CUSAT 1 19 Jan 14:03:45 14:11:46 72° 78° (ENE) 14:19:14 437.405
AO-7 19 Jan 14:03:52 14:11:55 55° 65° (ENE) 14:20:00 29.400- 29.500
AO-85 19 Jan 14:04:46 14:09:32 77° 120° (ESE) 14:13:57 145.980
Cosmos 2504 19 Jan 14:05:24 14:13:05 36° 86° (E) 14:20:23 435.465 / 435.565
AIST 1 19 Jan 14:17:52 14:22:12 64° 279° (W) 14:26:32
DANDE 19 Jan 14:41:03 14:48:36 55° 76° (ENE) 14:56:46 436.750
ITUPSAT 1 19 Jan 14:55:04 14:59:54 81° 104° (ESE) 15:04:43 437.325
SO-50 19 Jan 15:14:41 15:16:39 13° 37° (NE) 15:18:36 436.795
BRITE-PL 19 Jan 15:21:53 15:26:46 30° 68° (ENE) 15:31:37 437.365/2234.400
BEESAT 19 Jan 15:30:45 15:35:17 43° 289° (WNW) 15:39:49 436.000
ITAMSAT 1 19 Jan 15:32:17 15:36:16 22° 266° (W) 15:40:16 435.822/435.867
SWISSCUBE 19 Jan 15:32:21 15:36:47 38° 290° (WNW) 15:41:11 437.505
GOMX 1 19 Jan 15:33:42 15:36:52 16° 63° (ENE) 15:39:59 467.674
MOZHAYETS 4 19 Jan 15:36:03 15:40:41 69° 101° (ESE) 15:45:19
STARS 19 Jan 15:46:26 15:47:45 11° 90° (E) 15:49:03 437.465
CUSAT 1 19 Jan 15:46:54 15:52:55 24° 277° (W) 15:58:39 437.405
AO-85 19 Jan 15:47:44 15:50:23 15° 317° (NW) 15:52:57 145.980
NOAA 15 19 Jan 15:53:11 15:54:53 12° 58° (ENE) 15:56:35 137.62
Cosmos 2491 19 Jan 15:55:53 15:58:23 11° 287° (WNW) 16:00:54 435.465 / 435.565
AO-7 19 Jan 15:57:35 16:04:55 34° 263° (W) 16:12:21 29.400- 29.500
Cosmos 2504 19 Jan 15:57:53 16:06:13 48° 284° (WNW) 16:14:08 435.465 / 435.565
YUBILEINY 19 Jan 15:58:42 16:06:07 30° 292° (WNW) 16:13:38 435.215
BEESAT 3 19 Jan 16:00:37 16:04:09 34° 115° (ESE) 16:07:45 437.485
M-CUBED/EXP-1 PRIME 19 Jan 16:01:47 16:04:57 37° 104° (ESE) 16:07:59 437.505
O/OREOS (USA 219) 19 Jan 16:06:17 16:10:44 57° 66° (ENE) 16:15:10 437.305
LilacSat-2 19 Jan 16:18:18 16:19:50 12° 65° (ENE) 16:21:22 437.200
DOVE 4 19 Jan 16:18:35 16:21:33 16° 65° (ENE) 16:24:27 437.250
CUBESAT XI-V 19 Jan 16:19:07 16:23:14 30° 96° (E) 16:27:18 437.345
KKS-1 19 Jan 16:23:54 16:28:19 69° 102° (ESE) 16:32:43 437.445
DANDE 19 Jan 16:24:14 16:31:04 35° 271° (W) 16:38:21 436.750
HORYU 2 19 Jan 16:31:18 16:35:37 60° 73° (ENE) 16:39:59 437.375
CUTE-I 19 Jan 16:34:09 16:38:27 26° 65° (ENE) 16:42:47 437.470
ITUPSAT 1 19 Jan 16:35:15 16:37:02 12° 300° (WNW) 16:38:50 437.325
AUBIESAT-1 19 Jan 16:39:15 16:42:38 80° 289° (WNW) 16:45:54 437.475
BEESAT 2 19 Jan 16:42:46 16:46:30 43° 117° (ESE) 16:50:18 435.950
HO-68 19 Jan 16:51:26 16:54:32 13° 51° (NE) 16:57:38 435.675
SO-50 19 Jan 16:53:21 16:57:53 79° 57° (ENE) 17:02:20 436.795
BRITE-PL 19 Jan 16:59:44 17:05:01 39° 263° (W) 17:10:18 437.365/2234.400
GOMX 1 19 Jan 17:08:58 17:14:25 70° 259° (W) 17:19:37 467.674
NOAA 18 19 Jan 17:12:08 17:17:00 33° 66° (ENE) 17:21:52 137.9125
MOZHAYETS 4 19 Jan 17:15:10 17:17:15 13° 298° (WNW) 17:19:20
Cubesat XI-IV 19 Jan 17:15:53 17:21:05 60° 72° (ENE) 17:26:20 437.490
STARS 19 Jan 17:20:10 17:24:30 63° 286° (WNW) 17:28:48 437.465
NOAA 15 19 Jan 17:28:31 17:33:48 84° 75° (ENE) 17:39:09 137.62
M-CUBED/EXP-1 PRIME 19 Jan 17:37:46 17:39:05 12° 301° (WNW) 17:40:24 437.505
BEESAT 3 19 Jan 17:38:48 17:41:52 22° 313° (NW) 17:44:58 437.485
O/OREOS (USA 219) 19 Jan 17:47:30 17:49:36 13° 262° (W) 17:51:42 437.305
LilacSat-2 19 Jan 17:50:04 17:53:41 47° 261° (W) 17:57:22 437.200
CINEMA 3 19 Jan 17:53:44 17:57:38 31° 71° (ENE) 18:01:26 145.822/145.860
DOVE 4 19 Jan 17:53:50 17:58:50 60° 260° (W) 18:03:34 437.250
CUTE 1.7 + AOD 2 19 Jan 17:55:44 17:58:37 18° 66° (ENE) 18:01:31 437.475
CUBESAT XI-V 19 Jan 17:56:33 18:00:31 28° 292° (WNW) 18:04:27 437.345
KKS-1 19 Jan 18:02:37 18:04:18 12° 298° (WNW) 18:05:58 437.445
HORYU 2 19 Jan 18:10:51 18:12:33 12° 269° (W) 18:14:15 437.375
CUTE-I 19 Jan 18:13:19 18:18:17 40° 262° (W) 18:23:17 437.470
BEESAT 2 19 Jan 18:21:37 18:24:30 19° 315° (NW) 18:27:24 435.950
Cosmos 2499 19 Jan 18:22:52 18:29:09 24° 83° (E) 18:35:08 435.465 / 435.565
CANX-2 19 Jan 18:23:26 18:27:25 41° 72° (ENE) 18:31:27 2200.000
AIST 2 19 Jan 18:33:45 18:35:38 13° 108° (ESE) 18:37:31 435.215
HO-68 19 Jan 18:33:49 18:40:55 67° 70° (ENE) 18:48:04 435.675
SEEDS 19 Jan 18:36:50 18:40:36 33° 71° (ENE) 18:44:25 437.485
SO-50 19 Jan 18:36:53 18:37:38 10° 253° (WSW) 18:38:23 436.795
COMPASS 1 19 Jan 18:44:25 18:47:56 26° 69° (ENE) 18:51:28 437.405
GONETS M04 19 Jan 18:48:55 18:56:05 30° 83° (E) 19:03:15
NOAA 18 19 Jan 18:52:41 18:57:35 33° 263° (W) 19:02:31 137.9125
CUBEBUG 2 19 Jan 18:55:10 18:58:53 32° 71° (ENE) 19:02:34 437.445
AAUSAT CUBESAT 2 19 Jan 18:56:40 19:00:13 28° 69° (ENE) 19:03:47 437.432
Cubesat XI-IV 19 Jan 18:58:14 19:01:33 17° 268° (W) 19:04:53 437.490
NOAA 15 19 Jan 19:12:34 19:14:12 11° 271° (W) 19:15:52 137.62
STRAND 1 19 Jan 19:17:09 19:22:13 59° 101° (E) 19:27:18 437.568
FUNcube-1 19 Jan 19:24:23 19:27:38 23° 68° (ENE) 19:30:56 145.935
UWE-3 19 Jan 19:25:19 19:29:14 43° 73° (ENE) 19:33:10 435.000/436.395/437.385
CUTE 1.7 + AOD 2 19 Jan 19:30:10 19:34:08 39° 262° (W) 19:38:10 437.475
CINEMA 3 19 Jan 19:31:16 19:34:47 23° 265° (W) 19:38:13 145.822/145.860
ZACube-1 19 Jan 19:46:09 19:50:04 44° 73° (ENE) 19:54:02 437.345
CANX-2 19 Jan 20:00:46 20:03:27 16° 268° (W) 20:06:10 2200.000
HUMSAT D 19 Jan 20:07:42 20:09:19 12° 63° (ENE) 20:10:56 437.325/437.525
AIST 2 19 Jan 20:09:32 20:13:35 57° 305° (NW) 20:17:43 435.215
Cosmos 2499 19 Jan 20:13:10 20:21:38 68° 280° (W) 20:29:30 435.465 / 435.565
SEEDS 19 Jan 20:13:14 20:16:21 20° 267° (W) 20:19:30 437.485
COMPASS 1 19 Jan 20:19:57 20:23:24 25° 265° (W) 20:26:53 437.405
DELFI C3 19 Jan 20:21:43 20:25:14 30° 71° (ENE) 20:28:47 145.870
PRISM 19 Jan 20:23:28 20:25:28 13° 92° (E) 20:27:28 437.425
HO-68 19 Jan 20:23:45 20:29:09 23° 267° (W) 20:34:36 435.675
Oscar 11 19 Jan 20:23:47 20:28:06 79° 258° (WSW) 20:32:27 145.826/435.025
AAUSAT CUBESAT 2 19 Jan 20:32:17 20:35:38 23° 265° (W) 20:39:01 437.432
CUBEBUG 2 19 Jan 20:32:30 20:35:33 20° 266° (W) 20:38:36 437.445
GONETS M04 19 Jan 20:43:47 20:52:19 58° 283° (WNW) 21:00:57
STRAND 1 19 Jan 20:57:34 21:00:55 18° 298° (WNW) 21:04:16 437.568
ANTELSAT 19 Jan 20:59:53 21:01:12 11° 90° (E) 21:02:31 437.575/2403.000
FUNcube-1 19 Jan 21:00:14 21:03:45 27° 264° (W) 21:07:19 145.935
UWE-3 19 Jan 21:03:39 21:05:55 14° 268° (W) 21:08:12 435.000/436.395/437.385
ZACube-1 19 Jan 21:24:23 21:26:36 14° 269° (W) 21:28:50 437.345
HUMSAT D 19 Jan 21:40:23 21:44:23 58° 260° (W) 21:48:29 437.325/437.525
CUBEBUG 1 19 Jan 21:48:42 21:50:53 14° 63° (ENE) 21:53:04 437.445
PRISM 19 Jan 21:57:04 22:01:02 47° 287° (WNW) 22:04:57 437.425
DELFI C3 19 Jan 21:57:07 22:00:04 20° 266° (W) 22:03:02 145.870
AISAT 19 Jan 22:03:07 22:05:10 13° 62° (ENE) 22:07:13 437.250
UNISAT 6 19 Jan 22:05:14 22:09:37 60° 101° (E) 22:14:06 437.425
Cosmos 2499 19 Jan 22:13:03 22:16:11 12° 300° (WNW) 22:19:16 435.465 / 435.565
TIGRISAT 19 Jan 22:18:48 22:23:15 80° 102° (ESE) 22:27:46 435.000
ESTCUBE 1 19 Jan 22:19:09 22:23:29 47° 72° (ENE) 22:27:52 437.505/2401.250
BY70-1 19 Jan 22:25:59 22:28:53 57° 260° (W) 22:32:04 436.1900
ANTELSAT 19 Jan 22:33:53 22:38:17 67° 286° (WNW) 22:42:47 437.575/2403.000
VELOX 1 19 Jan 22:34:39 22:38:19 26° 68° (ENE) 22:42:00 145.980
JAS-2 19 Jan 22:35:29 22:42:25 47° 99° (E) 22:49:50 435.910
ISS 19 Jan 22:35:36 22:38:52 87° 138° (SE) 22:42:07 145.825
POPSAT HIP 1 19 Jan 22:36:21 22:37:27 11° 90° (E) 22:38:32 437.405
AO-85 19 Jan 22:36:41 22:40:32 53° 55° (NE) 22:44:21 145.980
RS-15 19 Jan 22:38:07 22:48:42 41° 107° (ESE) 22:59:40 29.354- 29.394
50 SAT 19 Jan 22:44:17 22:46:56 20° 68° (ENE) 22:49:36 437.505
DUCHIFAT 1 19 Jan 22:47:26 22:49:20 13° 91° (E) 22:51:13 145.980
GONETS M04 19 Jan 22:49:43 22:51:21 11° 306° (NW) 22:53:00
NANOSAT C BR1 19 Jan 22:51:55 22:54:33 16° 93° (E) 22:57:11 145.865
